ATLAS 5 CENTAUR DEB, 43996

Orbit data source: Space-Track

ATLAS 5 CENTAUR DEB, 43996 is space debris in HEO originally from a launch on Wed, 17 Sep 2014 UTC launched from the Air Force Eastern Test Range (AFETR). Debris objects in space refer to the collection of defunct objects orbiting the Earth. Examples of debris include non-operational satellites, rocket bodies, and fragments generated from explosions, collisions, or faulty payload assembly.

Loading next visibility...
Identifier
43996, 2014-055BB
Orbit
HEO
Country
Flag of USUS
Related business
Flag of USUnited Launch Alliance/Lockheed Martin (US)
Manufacturer
Unknown
Mission
Spacecraft
Bus & Motor
Unknown
Mass
Unknown
Launch date (UTC)
2014-09-17 (12 years ago)
Launch vehicle
Unknown
Launch site
Air Force Eastern Test Range (AFETR)
Object type
Payload
Rocket body
Debris
Shape & HBR
Unknown shape, 1.1 m
Radar Cross Section
Small (<0.1 m²)

Expand to show TLE details & history
Last TLE update: 15 hours ago

TLE from 15 hours ago
0 ATLAS 5 CENTAUR DEB
1 43996U 14055BB  26119.48349211 -.00000004  00000-0  00000+0 0  9991
2 43996  19.6189 161.7031 4852187 133.3967 278.9127  1.81739780 50143
Epoch: 2026-04-29T11:36Z
TLE epoch observation values (Epoch: 2026-04-29T11:36:13.718Z)
Latitude
-0.00002°
Longitude
130.29056°
Altitude
26,121.803 km
Speed
3.237 km/s
True Right ascension
10h 47m 09s
True Declination
0° 00' 00"
Sunlit
Object was in daylight at epoch
Visualization orbit readout
Latitude
Unknown
Longitude
Unknown
Altitude
Unknown
Speed
Unknown
Apparent Right ascension
Unknown
Apparent Declination
Unknown
Sunlit
N/A
Visualization observer readout
Local Sidereal Time
10:24:02
Azimuth
Unknown
Elevation
Unknown
Doppler factor
Unknown
Orbital elements
Apogee altitude
35,751.599 km
Perigee altitude
8,224.157 km
Semi-major axis
28,366.015 km
Eccentricity
0.48522
Inclination
19.6189°
RAAN
161.7031°
Arg. of periapsis
133.3967°
True anomaly
226.62968°
Mean anomaly
278.9127°
Eccentric anomaly
252.41139°
Mean motion
0.4543 °/min
Orbital period
792.42 mins
BSTAR
0
Loading maneuver chart data...
Computing Atmospheric mass density...

Documentation

Showing up to 5 results
|